1430639431683,0.000160581
1430639491683,0.000159667
1430639551683,0.000158253
1430639611683,0.000160138
1430639671683,0.000158601
1430639731683,0.000157686
1430639791683,0.000158511
1430639851683,0.000160270
1430639911683,0.000159324
1430639971683,0.000158054
1430640031683,0.000158850
1430640091683,0.000158558
1430640151683,0.000161608
1430640211683,0.000160812
1430640271683,0.000158292
1430640331683,0.000158693
1430640391683,0.000158739
1430640451683,0.000160520
1430640511683,0.000159477
1430640571683,0.000157235
1430640631683,0.000157490
1430640691683,0.000159192
1430640751683,0.000157971
1430640811683,0.000156846
1430640871683,0.000157938
1430640931683,0.000157358
1430640991683,0.000158799
1430641051683,0.000155851
1430641111683,0.000156441
1430641171683,0.000156774
1430641231683,0.000159130
1430641291683,0.000155822
1430641351683,0.000157956
1430641411683,0.000157046
1430641471683,0.000157034
1430641531683,0.000157404
1430641591683,0.000157878
1430641651683,0.000158747
1430641711683,0.000159263
1430641771683,0.000158985
1430641831683,0.000160021
1430641891683,0.000158621
1430641951683,0.000160037
1430642011683,0.000158779
1430642071683,0.000159147
1430642131683,0.000158656
1430642191683,0.000159170
1430642251683,0.000159539
1430642311683,0.000159630
1430642371683,0.000161166
1430642431683,0.000161257
1430642491683,0.000161104
1430642551683,0.000159428
1430642611683,0.000157698
1430642671683,0.000157536
1430642731683,0.000156194
1430642791683,0.000157139
1430642851683,0.000160943
1430642911683,0.000158669
1430642971683,0.000159038
1430643031683,0.000156034
1430643091683,0.000159868
1430643151683,0.000158633
1430643211683,0.000158685
1430643271683,0.000159551
1430643331683,0.000160274
1430643391683,0.000159570
1430643451683,0.000160649
1430643511683,0.000161768
1430643571683,0.000158750
1430643631684,0.000161137
1430643691684,0.000160332
1430643751684,0.000161225
1430643811684,0.000160752
1430643871684,0.000163263
1430643931684,0.000162901
1430643991684,0.000160908
1430644051684,0.000159998
1430644111684,0.000162060
1430644171684,0.000161042
1430644231684,0.000160464
1430644291684,0.000162370
1430644351684,0.000161789
1430644411684,0.000162177
1430644471684,0.000160771
1430644531684,0.000161282
1430644591684,0.000162547
1430644651684,0.000162526
1430644711684,0.000159537
1430644771684,0.000163192
1430644831684,0.000159999
1430644891684,0.000163052
1430644951684,0.000164711
1430645011684,0.000162003
1430645071684,0.000162406
1430645131684,0.000161450
1430645191684,0.000162753
1430645251684,0.000162906
1430645311684,0.000162299
1430645371684,0.000163325
1430645431684,0.000162881
1430645491684,0.000160999
1430645551684,0.000161430
1430645611684,0.000159531
1430645671684,0.000159765
1430645731684,0.000157949
1430645791684,0.000158550
1430645851684,0.000159737
1430645911684,0.000159240
1430645971684,0.000158345
1430646031684,0.000159872
1430646091684,0.000161492
1430646151684,0.000162051
1430646211684,0.000161430
1430646271684,0.000160945
1430646331684,0.000159579
1430646391684,0.000160904
1430646451684,0.000159874
1430646511684,0.000161602
1430646571684,0.000161784
1430646631684,0.000161139
1430646691684,0.000161477
1430646751684,0.000161391
1430646811684,0.000162219
1430646871684,0.000161185
1430646931684,0.000160645
1430646991684,0.000160441
1430647051684,0.000161823
1430647111684,0.000161760
1430647171684,0.000162398
1430647231685,0.000160414
1430647291685,0.000161635
1430647351685,0.000162269
1430647411685,0.000161709
1430647471685,0.000163087
1430647531685,0.000159693
1430647591685,0.000160891
1430647651685,0.000160035
1430647711685,0.000162966
1430647771685,0.000160670
1430647831685,0.000161435
1430647891685,0.000162563
1430647951685,0.000160676
1430648011685,0.000162663
1430648071685,0.000160043
1430648131685,0.000160926
1430648191685,0.000161736
1430648251685,0.000161992
1430648311685,0.000162219
1430648371685,0.000163219
1430648431685,0.000164259
1430648491685,0.000163846
1430648551685,0.000162682
1430648611685,0.000162369
1430648671685,0.000165334
1430648731685,0.000165965
1430648791685,0.000162728
1430648851685,0.000161842
1430648911685,0.000164904
1430648971685,0.000162654
1430649031685,0.000162921
1430649091685,0.000162877
1430649151685,0.000161136
1430649211685,0.000161211
1430649271685,0.000161508
1430649331685,0.000162464
1430649391685,0.000162351
1430649451685,0.000163734
1430649511685,0.000161790
1430649571685,0.000164963
1430649631685,0.000165092
1430649691685,0.000163574
1430649751685,0.000161397
1430649811685,0.000161883
1430649871685,0.000161704
1430649931685,0.000161801
1430649991685,0.000161712
1430650051685,0.000162802
1430650111685,0.000160945
1430650171685,0.000163035
1430650231685,0.000163935
1430650291685,0.000161888
1430650351685,0.000162945
1430650411685,0.000161382
1430650471685,0.000159628
